Tracking 32136 objects as of 11-Nov-2025
HD Live streaming from Space Station
objects crossing your sky now

STARLINK-5956

Track STARLINK-5956 now!
10-day predictions
STARLINK-5956 is classified as:


NORAD ID: 55994
Int'l Code: 2023-042J
Perigee: 565.5 km
Apogee: 566.8 km
Inclination: 43.0 °
Period: 95.8 minutes
Semi major axis: 6937 km
RCS: Unknown
Launch date: March 24, 2022
Source: United States (US)
Launch site: AIR FORCE EASTERN TEST RANGE (AFETR)
Your satellite tracking list
Your tracking list is empty




NASA's NSSDC Master Catalog

Two Line Element Set (TLE):
1 55994U 23042J   25314.79008049  .00002431  00000-0  19485-3 0  9995
2 55994  43.0066 342.2798 0000874 275.8039  84.2704 15.02559009145024
Source of the keplerian elements: AFSPC